Location: D�derode
(51.8092°N, 10.1065°E)
Time: 20:55:13
(UTC+00:00)

Cosmos 44 - Visible Passes

Search period start: 13 April 2021 00:00
Search period end: 23 April 2021 00:00
Orbit: 571 x 791 km, 65.1° (Epoch: 12 April)

Date Brightness Start Highest point End Pass type
(mag) Time Alt. Az. Time Alt. Az. Time Alt. Az.
13 Apr 6.0 01:40:04 10° NW 01:44:03 20° N 01:48:05 10° NE visible
13 Apr 5.4 03:21:58 10° NW 03:26:53 33° NNE 03:31:46 10° E visible
13 Apr 5.3 19:35:55 12° E 19:35:55 12° E 19:36:50 10° E visible
13 Apr 3.4 21:14:12 60° SSE 21:14:47 66° SE 21:20:08 10° NE visible
13 Apr 4.9 22:52:29 15° W 22:56:26 37° NNW 23:01:28 10° NE visible
14 Apr 5.9 00:35:09 10° NW 00:39:09 21° N 00:43:14 10° NE visible
14 Apr 5.8 02:17:49 10° NW 02:22:12 24° NNE 02:26:34 10° ENE visible
14 Apr 4.2 20:09:27 26° SSE 20:11:04 31° ESE 20:15:44 10° NE visible
14 Apr 3.9 21:47:36 14° WSW 21:52:03 62° NW 21:57:27 10° NE visible
14 Apr 5.6 23:29:57 10° WNW 23:34:20 25° NNW 23:38:49 10° NE visible
15 Apr 6.0 01:13:20 10° NW 01:17:21 20° N 01:21:23 10° NE visible
15 Apr 5.3 02:55:11 10° NW 03:00:09 34° NNE 03:05:04 10° E visible
15 Apr 5.0 19:05:06 10° SE 19:07:41 14° ESE 19:10:20 10° ENE visible
15 Apr 3.4 20:42:52 10° SSW 20:47:59 70° SE 20:53:22 10° NE visible
15 Apr 5.0 22:24:51 10° W 22:29:41 35° NNW 22:34:41 10° NE visible
16 Apr 6.0 00:08:27 10° NW 00:12:27 21° N 00:16:29 10° NE visible
16 Apr 5.9 01:51:02 10° NW 01:55:28 24° NNE 01:59:53 10° ENE visible
16 Apr 4.3 03:32:24 10° NW 03:37:49 58° NE 03:43:07 10° ESE visible
16 Apr 4.1 19:39:41 10° S 19:44:14 33° ESE 19:49:00 10° NE visible
16 Apr 4.0 21:20:08 10° WSW 21:25:16 59° NW 21:30:40 10° NE visible
16 Apr 5.7 23:03:15 10° WNW 23:07:36 24° NNW 23:12:03 10° NE visible
17 Apr 6.1 00:46:36 10° NW 00:50:38 21° N 00:54:41 10° NE visible
17 Apr 5.3 02:28:23 10° NW 02:33:24 35° NNE 02:38:21 10° E visible
17 Apr 3.4 20:16:02 10° SSW 20:21:10 74° SE 20:26:35 10° NE visible
17 Apr 5.2 21:58:08 10° W 22:02:56 34° NNW 22:07:54 10° NE visible
17 Apr 6.1 23:41:44 10° NW 23:45:44 20° N 23:49:46 10° NE visible
18 Apr 5.8 01:24:16 10° NW 01:28:45 25° NNE 01:33:12 10° ENE visible
18 Apr 4.2 03:05:36 10° NW 03:11:03 61° NE 03:16:21 10° ESE visible
18 Apr 4.0 19:12:45 10° S 19:17:24 35° ESE 19:22:15 10° NE visible
18 Apr 4.2 20:53:22 10° WSW 20:58:31 56° NW 21:03:52 10° NE visible
18 Apr 5.8 22:36:34 10° WNW 22:40:53 24° NNW 22:45:16 10° NE visible
19 Apr 6.1 00:19:52 10° NW 00:23:54 21° N 00:27:59 10° NE visible
19 Apr 5.2 02:01:35 10° NW 02:06:39 36° NNE 02:11:38 10° E visible
19 Apr 3.4 19:49:12 10° SW 19:54:22 79° SE 19:59:48 10° NE visible
19 Apr 5.3 21:31:25 10° W 21:36:11 33° NNW 21:41:07 10° NE visible
19 Apr 6.1 23:15:02 10° NW 23:19:00 20° N 23:23:02 10° NE visible
20 Apr 5.8 00:57:29 10° NW 01:02:00 26° NNE 01:06:31 10° ENE visible
20 Apr 4.1 02:38:48 10° NW 02:44:16 64° NE 02:49:35 10° SE visible
20 Apr 4.3 20:26:37 10° WSW 20:31:44 53° NW 20:37:05 10° NE visible
20 Apr 5.9 22:09:53 10° WNW 22:14:09 23° NNW 22:18:31 10° NE visible
20 Apr 6.1 23:53:06 10° NW 23:57:12 21° N 00:01:17 10° ENE visible
21 Apr 5.1 01:34:48 10° NW 01:39:54 38° NNE 01:44:55 10° E visible
21 Apr 3.5 03:16:07 10° NW 03:21:32 64° SW 03:26:46 10° SSE visible
21 Apr 3.5 19:22:23 10° SW 19:27:34 84° SE 19:33:01 10° NE visible
21 Apr 5.4 21:04:42 10° W 21:09:27 32° NNW 21:14:19 10° NE visible
21 Apr 6.2 22:48:19 10° NW 22:52:18 20° N 22:56:18 10° NE visible
22 Apr 5.7 00:30:42 10° NW 00:35:17 26° NNE 00:39:50 10° ENE visible
22 Apr 3.9 02:12:00 10° NW 02:17:29 68° NE 02:22:49 10° SE visible
22 Apr 4.5 19:59:51 10° WSW 20:04:58 51° NW 20:10:17 10° NE visible
22 Apr 6.0 21:43:11 10° WNW 21:47:25 23° NNW 21:51:44 10° NE visible
22 Apr 6.1 23:26:22 10° NW 23:30:29 21° N 23:34:35 10° ENE visible
